Location: Caltech
(34.1382°N, 118.1253°W)
Time: 20:21:38
(UTC-08:00)

Hamsat - Visible Passes

Search period start: 06 March 2015 00:00
Search period end: 16 March 2015 01:00
Orbit: 590 x 625 km, 97.6° (Epoch: 06 March)

Date Brightness Start Highest point End Pass type
(mag) Time Alt. Az. Time Alt. Az. Time Alt. Az.
06 Mar ? 04:10:10 10° E 04:10:49 10° E 04:11:46 10° ESE visible
06 Mar ? 05:42:54 10° N 05:47:06 52° WNW 05:51:18 10° SSW visible
07 Mar ? 04:21:55 10° ENE 04:24:25 16° E 04:27:07 10° SE visible
08 Mar ? 05:34:38 10° NE 05:37:59 22° E 05:41:26 10° SSE visible
09 Mar ? 05:47:38 10° NNE 05:51:30 32° E 05:55:25 10° SSE visible
10 Mar ? 06:00:48 10° NNE 06:04:59 47° E 06:09:10 10° S visible
11 Mar ? 06:14:05 10° NNE 06:18:25 70° E 06:22:44 10° S visible
12 Mar ? 06:27:28 10° N 06:31:50 80° W 06:36:10 10° SSW visible
13 Mar ? 05:08:30 10° E 05:08:53 10° E 05:09:36 10° E visible
13 Mar ? 06:40:57 10° N 06:45:12 54° WNW 06:49:25 10° SSW visible
14 Mar ? 05:20:01 10° ENE 05:22:27 15° E 05:25:06 10° SE visible
15 Mar ? 05:32:40 10° NE 05:35:59 22° E 05:39:24 10° SSE visible
